Regional Weather Roundup
Issued by NWS

Home | Current Version | Previous Version | Graphics & Text | Print | Product List | Glossary On
Versions: 1 2 3 4 5 6 7 8 9 10 11 12 13 14 15 16 17 18 19 20 21 22 23 24 25 26 27 28 29 30 31 32 33 34 35 36 37 38 39 40 41 42 43 44 45 46 47 48 49 50
000
ASUS43 KMKX 040320
RWRWI

WISCONSIN REGIONAL WEATHER ROUNDUP
NATIONAL WEATHER SERVICE MILWAUKEE/SULLIVAN WI
900 PM CST TUE MAR 03 2015

NOTE: "FAIR" INDICATES FEW OR NO CLOUDS BELOW 12,000 FEET WITH NO
SIGNIFICANT WEATHER AND/OR OBSTRUCTIONS TO VISIBILITY.

WIZ001-002-006>008-014>016-023>028-040400-
NORTHWEST WISCONSIN

CITY           SKY/WX    TMP DP  RH WIND       PRES   REMARKS
SUPERIOR ARPT  CLEAR     11  -2  56 NW21G26   29.87R WCI  -8
ASHLAND        PTCLDY    14   1  56 W16G23    29.80R WCI  -2
HAYWARD        PTCLDY    13  -1  54 VRB6      29.79R WCI   4
SIREN          CLEAR     12   1  61 NW15G24   29.87R WCI  -4
CUMBERLAND     CLEAR     12   3  67 W16G22    29.83R WCI  -4
RICE LAKE      CLEAR     15   4  59 W12G17    29.85R WCI   2
CHETEK         CLEAR     15   5  65 W9        29.85R WCI   3
LADYSMITH      CLEAR     18   5  57 W14       29.78R WCI   4
EAU CLAIRE     CLEAR     17   5  59 W14       29.86R WCI   3
MENOMONIE      CLEAR     16   4  61 W16G25    29.89R WCI   0
NEW RICHMOND   PTCLDY    12   1  62 NW22G28   29.90R WCI  -7
OSCEOLA        CLEAR     12   1  62 W20       29.95R WCI  -6
$$

WIZ003>005-009-010-017-018-040400-
NORTH CENTRAL WISCONSIN

CITY           SKY/WX    TMP DP  RH WIND       PRES   REMARKS
MANITOWISH WTR PTCLDY    14   4  66 W12       29.68R WCI   0
ARBOR VITAE    FAIR      18   9  68 NW10G17   29.68R WCI   6
WOODRUFF       FAIR      18   9  68 NW10G17   29.68R WCI   6
RHINELANDER    CLEAR     18   8  65 W16G25    29.68R WCI   3
EAGLE RIVER    PTCLDY    17   6  64 W13       29.65R WCI   3
LAND O LAKES   FLURRIES  18  11  75 NW10      29.65R WCI   6
PHILLIPS       CLEAR     15   5  64 NW5       29.71R WCI   8
TOMAHAWK       CLEAR     19   9  65 W7        29.71R WCI   9
MEDFORD        CLEAR     19   7  61 W14G22    29.74R WCI   5
MERRILL        CLEAR     22  10  60 NW13G21   29.71R WCI  10
$$

WIZ029-030-035-036-043>047-040400-
CENTRAL WISCONSIN

CITY           SKY/WX    TMP DP  RH WIND       PRES   REMARKS
WAUSAU         PTCLDY    23  13  65 W14       29.72R WCI  11
MOSINEE        MOCLDY    25  18  74 W15G23    29.74R WCI  12
MARSHFIELD     CLEAR     21  10  62 NW17G25   29.77R WCI   7
STEVENS POINT  PTCLDY    23  10  59 W17G28    29.76R WCI   9
WAUPACA        MOCLDY    29  17  60 W9G18     29.76R WCI  21
WAUTOMA        MOCLDY    28  18  66 W13       29.78R WCI  17
WISC RAPIDS    MOCLDY    26  13  57 NW13G24   29.78R WCI  15
CAMP DOUGLAS   MOCLDY    27  18  69 W10G23    29.80R WCI  17
$$

WIZ011>013-019>022-031-037>040-048>050-040400-
NORTHEAST WISCONSIN

CITY           SKY/WX    TMP DP  RH WIND       PRES   REMARKS
ANTIGO         CLOUDY    22  15  76 NW15      29.69R WCI   8
SHAWANO        CLEAR     29  20  70 W7        29.73R WCI  22
OCONTO         PTCLDY    26  20  79 W6        29.71R WCI  19
STURGEON BAY   PTCLDY    27  18  69 W13       29.72R WCI  16
GREEN BAY      CLOUDY    29  20  69 W14       29.73R WCI  18
MANITOWOC      CLOUDY    28  23  81 W10       29.74R WCI  19
APPLETON       CLOUDY    28  18  64 W16G23    29.74R WCI  17
CLINTONVILLE   MOCLDY    28  19  69 W13       29.73R WCI  18
OSHKOSH        CLOUDY    29  20  69 W9        29.75R WCI  20
$$

WIZ032>034-041-042-053>061-040400-
SOUTHWEST WISCONSIN

CITY           SKY/WX    TMP DP  RH WIND       PRES   REMARKS
LA CROSSE      CLEAR     21  11  65 NW16      29.90R WCI   7
SPARTA         PTCLDY    24  13  63 W15G22    29.85R WCI  11
VIROQUA        CLEAR     20  13  73 W12       29.83R WCI   8
BOSCOBEL       CLOUDY    28  18  66 W13       29.88R WCI  17
PRAIRIE DU CHI PTCLDY    21  13  71 W15       29.90R WCI   8
PLATTEVILLE    CLOUDY    27  22  81 W14G21    29.85R WCI  16
$$

WIZ056-057-062-063-064-067-068-040400-
SOUTH CENTRAL WISCONSIN

CITY           SKY/WX    TMP DP  RH WIND       PRES   REMARKS
REEDSBURG      CLOUDY    28  19  69 W10G21    29.80R WCI  19
BARABOO/DELLS  CLOUDY    29  20  68 W10G20    29.79R WCI  20
LONE ROCK      CLOUDY    30  19  63 W10       29.83R WCI  21
MINERAL POINT  CLOUDY    30  25  80 W15       29.81R WCI  19
MADISON        CLOUDY    31  21  66 NW6       29.79R WCI  25
MIDDLETON      CLOUDY    31  21  65 NW18G25   29.80R WCI  20
WATERTOWN      CLOUDY    29  24  82 W7        29.77S WCI  22
MONROE         CLOUDY    30  27  86 W16G22    29.81R WCI  19
JANESVILLE     CLOUDY    32  25  74 W8        29.80R WCI  25
$$

WIZ051-052-058>065-066-070>072-040400-
SOUTHEAST WISCONSIN

CITY           SKY/WX    TMP DP  RH WIND       PRES   REMARKS
MILWAUKEE      CLOUDY    30  21  69 W7        29.79R WCI  23
WAUKESHA       CLOUDY    28  23  80 W10       29.78S WCI  19
MILWAUKEE/TIMM CLOUDY    30  21  69 W7        29.79R WCI  23
RACINE         CLOUDY    30  22  72 W5        29.82R WCI  25
BURLINGTON     CLOUDY    25  21  84 SW6       29.80R WCI  18
KENOSHA        CLOUDY    30  22  72 W9        29.80R WCI  22
FOND DU LAC    CLOUDY    29  21  72 W10       29.77R WCI  20
SHEBOYGAN      CLOUDY    30  21  69 W12G21    29.75R WCI  20
WEST BEND      CLOUDY    30  21  69 W10G17    29.76R WCI  21
JUNEAU         CLOUDY    28  23  79 W6        29.78R WCI  22
$$

LSZ147-162-040400-
LAKE SUPERIOR

STATION/POSITION TIME  TEMP    WIND        PRES    WAVE
                       AIR SEA DIR/SP/G            HT/PER
                 (UTC) (F)     (DEG/KT/KT) (MB)    (FT/S)
DEVILS ISLAND    0300   16     300/ 28/ 34 1009.7R
PORT WING        0220   15     280/ 26     1009.8R
SAXON HARBOR     0300   18     280/ 11/ 21 1008.8R
$$

LMZ867-665-643>646-040400-
LAKE MICHIGAN

STATION/POSITION TIME  TEMP    WIND        PRES    WAVE
                       AIR SEA DIR/SP/G            HT/PER
                 (UTC) (F)     (DEG/KT/KT) (MB)    (FT/S)
NORTHPORT PIER   0301   27     260/  4/ 13 1005.1R
SISTER BAY       0213   24     250/ 10/ 11   N/A
KEWAUNEE LAKESHO 0300   29     260/  9/ 17 1005.9R
SHEBOYGAN LAKESH 0300   31     270/  6/  9 1008.8R
PORT WASHINGTON  0240   30     270/  2/  5 1008.8R
MILWAUKEE LAKESH 0300   31     260/  7/ 11   N/A
KENOSHA   LAKESH 0300   31     270/  6/  9 1009.5R
$$

TC  - TEMPERATURE IN CELSIUS
VSB - VISIBILITY IN STATUTE MILES
WCI - WIND CHILL INDEX
HX  - HEAT INDEX



USA.gov is the U.S. government's official web portal to all federal, state and local government web resources and services.